Skip Page Navigation
NASA JPL Caltech
NASA Logo - Jet Propulsion Laboratory + View the NASA Portal
+ Near-Earth Object (NEO) Program
Search JPL
JPL Home Earth Solar System Stars & Galaxies Technology
JPL Solar System Dynamics
BODIES ORBITS EPHEMERIDES TOOLS PHYSICAL DATA DISCOVERY FAQ SITE MAP
JPL Small-Body Database Browser
Search: [ help ]  
23728 Jasonmorrow (1998 HV63)
Classification: Main-belt Asteroid          SPK-ID: 2023728
Ephemeris | Orbit Diagram | Orbital Elements | Physical Parameters | Discovery Circumstances | Close-Approach Data ]

[ hide orbit diagram ]
Orbit Diagram
Note: Make sure you have Java enabled on your browser to see the applet. This applet is provided as a 3D orbit visualization tool. The applet was implemented using 2-body methods, and hence should not be used for determining accurate long-term trajectories (over several years or decades) or planetary encounter circumstances. For accurate long-term ephemerides, please instead use our Horizons system.
Orbit Viewer

Additional Notes: the orbits shown in the applet are color coded. The planets are white lines, and the asteroid/comet is a blue line. The bright white line indicates the portion of the orbit that is above the ecliptic plane, and the darker portion is below the ecliptic plane. Likewise for the asteroid/comet orbit, the light blue indicates the portion above the ecliptic plane, and the dark blue the portion below the ecliptic plane.

Orbit Viewer applet originally written and kindly provided by Osamu Ajiki (AstroArts), and further modified by Ron Baalke (JPL).


Orbital Elements at Epoch 2456400.5 (2013-Apr-18.0) TDB
Reference: JPL 1 (heliocentric ecliptic J2000)
 Element Value Uncertainty (1-sigma)   Units 
e .09046338493605956 5.7784e-08  
a 2.432592525857956 2.2791e-08 AU
q 2.212531971798687 1.4062e-07 AU
i 7.467884488761564 9.0679e-06 deg
node 49.68096538208428 6.2598e-05 deg
peri 57.62999322463624 9.2576e-05 deg
M 73.32165686162311 6.5936e-05 deg
tp 2456118.251106273155
(2012-Jul-09.75110627)
0.00025432 JED
period 1385.806132742306
3.79
1.9475e-05
5.332e-08
d
yr
n .2597765960867939 3.6507e-09 deg/d
Q 2.652653079917227 2.4853e-08 AU
  Orbit Determination Parameters
   # obs. used (total)      686  
   data-arc span      6009 days (16.45 yr)  
   first obs. used      1996-11-06  
   last obs. used      2013-04-20  
   planetary ephem.      DE405  
   SB-pert. ephem.      SB405-CPV-2  
   condition code      0  
   fit RMS      .55111  
   data source      ORB  
   producer      Otto Matic  
   solution date      2013-Apr-29 14:36:29  

Additional Information
 Earth MOID = 1.23894 AU 
 T_jup = 3.489 
[ show covariance matrix ]

Ephemeris | Orbit Diagram | Orbital Elements | Physical Parameters | Discovery Circumstances | Close-Approach Data ]

Physical Parameter Table
Parameter Symbol Value Units Sigma Reference Notes
absolute magnitude H 14.2 mag n/a PDS3 (MPO 11178)  

23728 Jasonmorrow           Discovered 1998 Apr. 21 by the Lincoln Laboratory Near-Earth Asteroid Research Team in Socorro.
Jason Charles Morrow (b. 1989) was awarded second place in the 2007 Intel International Science and Engineering Fair for his electrical and mechanical engineering team project. He attends the Westdale Secondary School, Hamilton, Ontario, Canada.
NOTE: some special characters may not display properly (any characters within {} are an attempt to place the proper accent above a character)
Reference: 20070828/MPCPages.arcLast Updated: 2007-08-30

[ show close-approach data ]
Alternate Designations
 1998 HV63 = 2000 QQ180 = 2001 AZ28 
Ephemeris | Orbit Diagram | Orbital Elements | Physical Parameters | Discovery Circumstances | Close-Approach Data ]
ABOUT SSD CREDITS/AWARDS PRIVACY/COPYRIGHT GLOSSARY LINKS
FirstGov 2013-May-21 16:42 UT
(server date/time)  
NASA Home Page
Site Manager:   Donald K. Yeomans
Webmaster  Alan B. Chamberlin